Location: Wald
(31.7579°N, 86.6655°W)
Time: 19:18:31
(UTC+00:00)

Cosmos 1953 Rocket - Pass Details

Date: 14 July 2020
Orbit: 605 x 634 km, 82.5° (Epoch: 13 August)

Event Time Altitude Azimuth Distance (km) Brightness Sun altitude
Rises 01:23:07 0° 163° (SSE) 2,844 6.5 -6.3°
Reaches altitude 10° 01:25:29 10° 153° (SSE) 1,945 5.6 -6.8°
Maximum altitude 01:29:18 32° 91° (E) 1,054 4.3 -7.5°
Drops below altitude 10° 01:33:09 10° 28° (NNE) 1,960 6.2 -8.2°
Sets 01:35:32 0° 19° (NNE) 2,870 7.2 -8.6°
